This demonstration page uses our WeatherBlox Daily Observations layout. Learn more.

Hourly Observations for December 14, 2017

Temp ( °F °C ) Dew Point ( °F °C ) Humidity (%) Winds ( mph kmh ) Pressure ( in mb ) Visibility ( mi km ) Precip ( " mm )
12:37 am 00:37 Cloudy 37 2.8 28 -2.2 70 70 WNW 22 35 29.65 1004 10 16.0934 0 0
12:53 am 00:53 Cloudy 37 2.8 27 -2.8 67 67 W 21 33 29.65 1004 10 16.0934 0 0
1:12 am 01:12 Windy with Snow Likely 36 2.2 26 -3.3 67 67 W 22 35 29.68 1005 9 14.48406 0 0.0254
1:19 am 01:19 Cloudy 36 2.2 26 -3.3 67 67 W 18 30 29.68 1005 9 14.48406 0 0.0254
1:53 am 01:53 Cloudy 34 1.1 24 -4.4 67 67 WNW 21 33 29.71 1006 10 16.0934 0 0.0254
2:41 am 02:41 Cloudy 33 0.6 22 -5.6 64 64 NW 17 28 29.77 1008 10 16.0934 0 0
2:53 am 02:53 Cloudy 32 0 22 -5.6 66 66 WNW 20 31 29.77 1008 10 16.0934 0 0
3:09 am 03:09 Cloudy 32 0 22 -5.6 66 66 WNW 16 26 29.8 1009 10 16.0934 0 0
3:49 am 03:49 Cloudy 32 0 21 -6 64 64 NW 17 28 29.83 1010 10 16.0934 0 0
3:53 am 03:53 Cloudy 32 0 22 -5.6 66 66 NW 15 24 29.81 1009 10 16.0934 0 0
4:53 am 04:53 Cloudy 32 0 22 -5.6 66 66 NW 15 24 29.84 1011 10 16.0934 0 0
5:25 am 05:25 Mostly Cloudy 29 -1.7 19 -7.2 66 66 NNW 10 17 29.91 1013 10 16.0934 0 0
5:51 am 05:51 Mostly Cloudy 28 -2 19 -7 69 69 NNW 7 11 29.94 1014 10 16.0934 0 0
5:53 am 05:53 Mostly Cloudy 28 -2.2 19 -7.2 69 69 NNW 9 15 29.9 1013 10 16.0934 0 0
6:53 am 06:53 Cloudy 26 -3.3 18 -7.8 71 71 NNW 7 11 29.94 1014 10 16.0934 0 0
7:53 am 07:53 Cloudy 26 -3.3 18 -7.8 71 71 N 8 13 29.99 1016 10 16.0934 0 0
8:53 am 08:53 Cloudy 25 -3.9 17 -8.3 72 72 NNE 9 15 30.01 1016 10 16.0934 0 0
9:53 am 09:53 Cloudy 25 -3.9 17 -8.3 72 72 NNW 9 15 30.05 1018 10 16.0934 0 0
10:53 am 10:53 Cloudy 25 -3.9 17 -8.3 72 72 N 8 13 30.08 1019 10 16.0934 0 0
11:53 am 11:53 Cloudy 25 -3.9 17 -8.3 72 72 N 3 6 30.09 1019 10 16.0934 0 0
12:53 pm 12:53 Cloudy 25 -3.9 16 -8.9 69 69 NNW 8 13 30.09 1019 10 16.0934 0 0
1:53 pm 13:53 Cloudy 27 -2.8 17 -8.3 66 66 NNW 7 11 30.08 1019 10 16.0934 0 0
2:53 pm 14:53 Mostly Cloudy 27 -2.8 16 -8.9 63 63 NNW 7 11 30.08 1019 10 16.0934 0 0
3:31 pm 15:31 Partly Cloudy 27 -2.8 16 -8.9 63 63 NNW 3 6 30.12 1020 10 16.0934 0 0
3:53 pm 15:53 Partly Cloudy 27 -2.8 16 -8.9 63 63 NW 3 6 30.09 1019 10 16.0934 0 0
4:00 pm 16:00 Mostly Cloudy 27 -2.8 16 -8.9 63 63 N 5 7 30.12 1020 10 16.0934 0 0
4:19 pm 16:19 Partly Cloudy 27 -2.8 16 -8.9 63 63 NNE 7 11 30.12 1020 10 16.0934 0 0
4:53 pm 16:53 Sunny 26 -3.3 16 -8.9 66 66 Calm 30.1 1019 10 16.0934 0 0
5:53 pm 17:53 Clear 23 -5 17 -8.3 78 78 Calm 30.12 1020 10 16.0934 0 0
6:53 pm 18:53 Clear 22 -5.6 17 -8.3 82 82 Calm 30.13 1020 10 16.0934 0 0
7:53 pm 19:53 Clear 22 -5.6 18 -7.8 85 85 Calm 30.14 1021 10 16.0934 0 0
8:53 pm 20:53 Clear 21 -6.1 18 -7.8 88 88 Calm 30.13 1020 10 16.0934 0 0
9:53 pm 21:53 Clear 21 -6.1 18 -7.8 88 88 Calm 30.14 1021 10 16.0934 0 0
10:53 pm 22:53 Clear 19 -7.2 17 -8.3 92 92 Calm 30.14 1021 10 16.0934 0 0
11:53 pm 23:53 Clear 20 -6.7 17 -8.3 89 89 Calm 30.12 1020 10 16.0934 0 0

Powered by AerisWeather